Showing default

IRIDIUM 168, 43924

Orbit data source: Space-Track

IRIDIUM 168, 43924 is a payload satellite owned by Iridium (US) in LEO that was launched on Fri, 11 Jan 2019 UTC via an FALCON 9 launch vehicle from the Air Force Western Test Range (AFWTR). Payloads include a variety of satellites, spacecraft, and rockets equipped with specific instruments for various scientific and technological missions. These include communications satellites like Starlink; space stations such as the ISS; scientific satellites like the Hubble; Earth observation satellites from companies like Planet Labs, Umbra, and HawkEye 360; GPS; miniature CubeSats for education and research; and military/defense satellites.

Loading next visibility...
IRIDIUM 168 details
Identifier
43924, 2019-002C
Orbit
LEO
Last TLE update11 hours ago
Origin
Flag of USIridium (US)
ManufacturerNGIS SSG Gilbert
MissionOperational Commercial Communications
Bus & MotorELITEBUS, Unknown motor
Mass860 kg wet, 700 kg dry
Launch date (UTC)
2019-01-11 (6 years ago)
Launch vehicle
FALCON 9
Launch site
Air Force Western Test Range (AFWTR)
Object type
Payload
Rocket body
Debris
Shape & HBRTrap Box + 2 Pan, 9.4 m
Radar Cross Section14.423 m², Large (>1 m²)

Expand to show TLE details & history

TLE from 11 hours ago
0 IRIDIUM 168
1 43924U 19002C   24361.14456152  .00000613  00000-0  21188-3 0  9991
2 43924  86.3982 218.4708 0002025  86.1262 274.0165 14.34223659311856
Epoch: 2024-12-26T03:28Z
Definitive object data (Epoch: 2024-12-26T03:28:10.115Z)
Latitude-0.00004°
Longitude71.30048°
Altitude780.597 km
Speed7.464 km/s
True Right ascension14h 33m 52s
True Declination0° 00' 00"
Sunlit
Object was in daylight at TLE epoch
Visualization TLE readout
Latitude41.40252°
Longitude-112.05019°
Altitude782.89 km
Speed7.467 km/s
Apparent Right ascension01h 57m 05s
Apparent Declination3° 36' 02"
Sunlit
Object is in full shadow
Visualization observer readout
Local Sidereal Time13:31:23
Azimuth350.736° N
Elevation-46.085°
Doppler factor1
Orbital elements
Apogee altitude776.06 km
Perigee altitude773.164 km
Semi-major axis7,152.749 km
Eccentricity0.0002025
Inclination86.3982°
RAAN218.4708°
Arg. of periapsis86.1262°
True anomaly273.99335°
Mean anomaly274.0165°
Eccentric anomaly274.00493°
Mean motion3.58785 °/min
BSTAR0.00021188
Orbital period100.34 mins
Loading maneuver chart data...
Loading historical data...
Loading historical data...
Loading historical data...
Loading historical data...
Loading historical data...
Loading historical data...
Loading historical data...

IRIDIUM 168 Visibility forecast

Observer location: undefined°, undefined

Span
Click to sort rows by Start time (UTC) header in descending order
Start Az.
Max El. time (UTC)
Max El. Az.
Max El.
End time (UTC)
End Az.
10 mins2024-12-26 15:17:35.759Z180.508° SSW2024-12-26 15:22:35.759Z42.358° NE44.991°2024-12-26 15:27:35.759Z2.763° NNE
6 mins2024-12-27 01:50:35.759Z43.736° NE2024-12-27 01:52:35.759Z73.719° E20.941°2024-12-27 01:56:35.759Z127.075° SE
7 mins2024-12-27 03:30:35.759Z331.183° NNW2024-12-27 03:33:35.759Z276.468° WNW32.075°2024-12-27 03:37:35.759Z211.466° SW
|